TimePDT,TemperatureF,Dew PointF,Humidity,Sea Level PressureIn,VisibilityMPH,Wind Direction,Wind SpeedMPH,Gust SpeedMPH,PrecipitationIn,Events,Conditions,WindDirDegrees,DateUTC
12:06 AM,55.4,55.4,100,30.00,5.0,Calm,Calm,-,N/A,,Partly Cloudy,0,2012-11-01 07:06:00
12:14 AM,55.4,55.4,100,30.01,5.0,Calm,Calm,-,N/A,,Partly Cloudy,0,2012-11-01 07:14:00
12:54 AM,53.1,53.1,100,30.01,3.0,ENE,3.5,-,N/A,,Clear,70,2012-11-01 07:54:00
1:14 AM,53.6,53.6,100,30.01,4.0,NE,3.5,-,N/A,,Mostly Cloudy,50,2012-11-01 08:14:00
1:54 AM,53.1,53.1,100,30.00,3.0,ENE,4.6,-,N/A,,Overcast,60,2012-11-01 08:54:00
2:54 AM,53.1,52.0,96,30.01,4.0,NE,3.5,-,N/A,,Overcast,50,2012-11-01 09:54:00
3:40 AM,53.6,53.6,100,30.00,2.5,ENE,6.9,-,N/A,,Overcast,60,2012-11-01 10:40:00
3:54 AM,53.1,53.1,100,30.00,2.0,ENE,6.9,-,N/A,,Mostly Cloudy,60,2012-11-01 10:54:00
4:30 AM,53.6,53.6,100,30.00,2.0,ENE,5.8,-,N/A,,Scattered Clouds,60,2012-11-01 11:30:00
4:40 AM,53.6,53.6,100,30.00,2.5,NE,4.6,-,N/A,,Mostly Cloudy,50,2012-11-01 11:40:00
4:54 AM,52.0,52.0,100,30.00,2.5,ENE,5.8,-,N/A,,Mostly Cloudy,60,2012-11-01 11:54:00
5:54 AM,53.1,53.1,100,30.01,4.0,NE,5.8,-,N/A,,Mostly Cloudy,40,2012-11-01 12:54:00
6:42 AM,51.8,51.8,100,30.00,7.0,ENE,6.9,-,N/A,,Scattered Clouds,60,2012-11-01 13:42:00
6:54 AM,51.1,51.1,100,30.01,7.0,NE,6.9,-,N/A,,Mostly Cloudy,50,2012-11-01 13:54:00
7:54 AM,51.1,51.1,100,30.02,7.0,ENE,5.8,-,N/A,,Mostly Cloudy,60,2012-11-01 14:54:00
9:28 AM,57.2,53.6,88,30.04,7.0,NE,4.6,-,N/A,,Mostly Cloudy,40,2012-11-01 16:28:00
9:54 AM,57.9,54.0,87,30.04,6.0,NE,5.8,-,N/A,,Mostly Cloudy,50,2012-11-01 16:54:00
10:54 AM,62.1,53.1,72,30.04,7.0,Variable,4.6,-,N/A,,Mostly Cloudy,0,2012-11-01 17:54:00
11:08 AM,62.6,53.6,72,30.03,7.0,South,6.9,-,N/A,,Scattered Clouds,170,2012-11-01 18:08:00
11:54 AM,63.0,54.0,72,30.03,7.0,South,8.1,16.1,N/A,,Scattered Clouds,190,2012-11-01 18:54:00
12:54 PM,64.0,55.0,73,30.01,7.0,Variable,6.9,-,N/A,,Scattered Clouds,0,2012-11-01 19:54:00
1:54 PM,64.0,54.0,70,30.00,7.0,WSW,8.1,-,N/A,,Scattered Clouds,240,2012-11-01 20:54:00
2:54 PM,64.0,54.0,70,29.98,7.0,Variable,6.9,-,N/A,,Scattered Clouds,0,2012-11-01 21:54:00
3:54 PM,63.0,54.0,72,29.98,7.0,SW,6.9,-,N/A,,Mostly Cloudy,230,2012-11-01 22:54:00
4:54 PM,62.1,55.0,78,29.98,7.0,Variable,5.8,-,N/A,,Scattered Clouds,0,2012-11-01 23:54:00
5:54 PM,57.9,54.0,87,29.98,7.0,West,6.9,-,N/A,,Scattered Clouds,270,2012-11-02 00:54:00
6:37 PM,57.2,55.4,94,29.98,7.0,Calm,Calm,-,N/A,,Mostly Cloudy,0,2012-11-02 01:37:00
6:54 PM,60.1,55.9,86,29.99,7.0,Calm,Calm,-,N/A,,Mostly Cloudy,0,2012-11-02 01:54:00
7:54 PM,59.0,55.9,90,29.99,8.0,Calm,Calm,-,N/A,,Mostly Cloudy,0,2012-11-02 02:54:00
8:54 PM,57.9,55.9,93,29.99,7.0,NE,4.6,-,N/A,,Overcast,50,2012-11-02 03:54:00
9:54 PM,59.0,55.0,87,29.99,7.0,ENE,3.5,-,N/A,,Mostly Cloudy,70,2012-11-02 04:54:00
10:54 PM,57.9,55.0,90,29.99,7.0,NE,4.6,-,N/A,,Mostly Cloudy,50,2012-11-02 05:54:00
11:54 PM,55.9,54.0,93,29.99,6.0,ENE,6.9,-,N/A,,Mostly Cloudy,60,2012-11-02 06:54:00